www.pogodaiklimat.ru

Погода и климат >> Архив погоды >> Россия >> Краснодарский край >> Усть-Лабинск


ПОГОДА в Усть-Лабинске

  • Прогноз погоды в Усть-Лабинске
  • Монитор погоды в Усть-Лабинске

АРХИВ ПОГОДЫ в Усть-Лабинске

Время (UTC), дата Ветер
(напр.,м/с)
 
Видим.   Явления Облачность Т
(С)
Тd
(С)
f
(%)
Тe
(С)
Тes
(С)
Комфортность P
(гПа)
Po
(гПа)
Тmin
(С)
Tmax
(С)
R
(мм)
R24
(мм)
S
(см)
21 11.07 С 1 10 км слаб. ливневой дождь 10/8 600 м
[Cb cap Ac und]
+15.9 +15.6 98 +17 +17 1006.8 995.8
00 12.07 С 2 10 км слаб. ливневой дождь 10/8 600 м
[Cb cap Ac und]
+15.2 +15.1 99 +15 +15 1006.8 995.8
03 12.07 С 2 4000 м слаб. ливневой дождь 10/10 600 м
[Cb cap]
+14.7 +14.6 99 +14 +14 1007.1 996.1 +14.7 17
06 12.07 С 2 10 км {ливн. осадки} 9/4 600 м
[Cb cap Ac trans]
+17.0 +14.9 87 +17 +20 1008.3 997.2 +14.7
09 12.07 ЮВ 2 10 км 8/5 600 м
[Cb cap Ac trans]
+20.9 +15.3 70 +25 +31 комфорт 1009.0 997.9
12 12.07 Ю 2 10 км 8/5 600 м
[Cb cap Ac trans]
+23.5 +14.3 56 +26 +30 жарко 1008.8 997.9
15 12.07 ЮВ 1 10 км 8/3 600 м
[Cb cap Ci fib]
+23.5 +13.3 53 +26 +27 жарко 1008.6 997.7 +24.8 0.8
18 12.07 В 1 10 км 6/3 600 м
[Cb cap Ci fib]
+17.6 +15.5 87 +19 +19 1009.5 998.4
21 12.07 ЮВ 1 10 км 4/0
[Ac trans Ci fib]
+17.8 +14.9 83 +19 +19 1009.6 998.5
00 13.07 ЮВ 1 10 км ясно +16.3 +15.0 92 +17 +17 1008.5 997.4
03 13.07 штиль 0 10 км гроза без осадков 10/8 600 м
[Cb cap Ac und]
+15.7 +14.0 90 +15 +16 1009.3 998.1 +15.7
06 13.07 СЗ 2 10 км {гроза} 9/5 600 м
[Cb cap Ac trans]
+19.3 +13.9 71 +21 +24 комфорт 1009.8 998.7
09 13.07 Ю 3 10 км 8/3 600 м
[Cb cap Ac trans Ci fib]
+23.2 +14.2 57 +27 +34 душно 1009.8 998.7
12 13.07 Ю 3
{12}
10 км 9/9 600 м
[Cb cap]
+20.9 +16.0 74 +25 +26 комфорт 1009.7 998.6
15 13.07 ЮЗ 2
{17}
10 км {гроза, ливн. осадки} 8/4 600 м
[Cb cap Ac trans]
+22.0 +14.7 63 +25 +26 комфорт 1010.8 999.7 +24.7 0.8
18 13.07 ЮЗ 1 10 км {гроза, ливн. осадки} ясно +17.9 +15.3 85 +19 +19 1011.5 1000.3
21 13.07 Ю 1 10 км 3/0
[Ci fib]
+16.0 +14.8 93 +17 +17 1011.8 1000.5
00 14.07 ЮЗ 1 10 км ясно +14.7 +14.2 97 +15 +15 1011.3 999.9
03 14.07 Ю 1 10 км 3/0
[Ac trans]
+14.9 +14.5 97 +15 +16 1011.6 1000.2 +13.9
06 14.07 В 1 10 км ясно +22.6 +15.0 62 +26 +38 жарко 1011.3 1000.2
09 14.07 В 2 10 км 8/8 600 м
[Cu med, cong]
+24.6 +14.1 52 +27 +31 жарко 1010.2 999.4
12 14.07 Ю 1 10 км 4/3 600 м
[Cu med, cong Ci fib]
+27.2 +10.0 34 +28 +38 жарко 1008.8 998.0
15 14.07 штиль 0 10 км 8/3 1000 м
[Cu med, cong Ci]
+26.8 +8.8 32 +27 +29 жарко 1008.0 997.2 +27.7
18 14.07 С 1 10 км 9/0
[Ac trans Ci]
+20.9 +13.1 61 +25 +25 комфорт 1008.3 997.2
21 14.07 СВ 2 10 км 6/0
[Ac trans Ci]
+19.9 +12.3 62 +22 +22 комфорт 1007.2 996.1
00 15.07 СВ 2 10 км 3/0
[Ac trans]
+17.7 +12.5 72 +18 +18 1006.3 995.2
03 15.07 В 5 10 км 3/0
[Ac trans Ci fib]
+18.5 +13.3 72 +19 +19 1005.8 994.7 +16.9
06 15.07 В 4 10 км 9/0
[Ac trans Ci fib]
+24.0 +15.1 57 +27 +31 жарко 1005.1 994.3
09 15.07 В 5
{11}
10 км 10/5 600 м
[Cb cap Ac und]
+25.0 +13.7 49 +27 +29 жарко 1004.4 993.6
12 15.07 ЮВ 1 10 км слаб. ливневой дождь 10/8 600 м
[Cb cap Ac und]
+21.9 +16.9 73 +26 +27 душно 1005.3 994.4
15 15.07 С 3 10 км в посл. час ливневой дождь 10/8 600 м
[Cb cap Ac und]
+19.4 +17.0 86 +22 +22 комфорт 1004.6 993.6 +25.7 4
18 15.07 Ю 2 10 км слаб. ливневой дождь 10/8 600 м
[Cb cap Ac und]
+18.4 +17.4 94 +20 +20 1006.3 995.2
21 15.07 Ю 1 10 км {ливн. осадки} 9/6 600 м
[Cb cap Ac trans]
+17.8 +17.1 96 +19 +19 1006.1 995.0
00 16.07 Ю 1 500 м туман {ливн. осадки} 5/3 600 м
[Cb cap Ac trans]
+16.7 +16.5 99 +18 +18 1005.5 994.4
03 16.07 ЮВ 1 10 км дымка {туман} 8/4 600 м
[Cb cap Ac trans]
+16.8 +16.6 99 +18 +18 1005.8 994.7 +16.1 0.5
06 16.07 ЮВ 2 10 км {туман} 10/5 600 м
[Cb cap Ac und]
+21.2 +18.3 84 +25 +27 комфорт 1005.8 994.9
09 16.07 Ю 3 10 км в посл. час ливневой дождь 8/5 600 м
[Cb cap Ac trans]
+21.0 +19.3 90 +26 +31 душно 1006.0 995.0
12 16.07 ЮЗ 5-10
{11}
10 км {ливн. осадки} 6/5 600 м
[Cb cap Ac trans]
+24.4 +16.7 62 +28 +31 душно 1005.9 995.1
15 16.07 З 6-12
{13}
10 км 5/4 600 м
[Cb cap Ac trans]
+24.0 +14.6 56 +27 +27 жарко 1007.4 996.6 +24.6 3
18 16.07 ЮЗ 3
{12}
10 км 6/3 600 м
[Cb cap Ac trans]
+20.2 +17.5 84 +24 +24 комфорт 1009.8 998.7
21 16.07 Ю 1 10 км ясно +17.9 +16.9 94 +19 +19 1009.9 998.8
00 17.07 Ю 2 10 км ясно +17.0 +15.6 91 +17 +17 1009.5 998.4
03 17.07 ЮВ 1 10 км ясно +16.4 +15.2 93 +17 +18 1009.8 998.6 +15.7
06 17.07 ЮВ 1 10 км 6/0
[Ci fib]
+22.1 +17.0 73 +27 +37 душно 1009.9 998.7
09 17.07 СЗ 2 10 км 8/6 600 м
[Cb cap Ci fib]
+27.0 +15.0 48 +30 +36 душно 1008.5 997.3
12 17.07 СЗ 1 10 км 8/6 600 м
[Cb cap Ci fib]
+28.7 +13.8 40 +31 +36 жарко 1007.7 996.5
15 17.07 В 2 10 км 4/3 600 м
[Cb cap Ci fib]
+28.0 +13.6 41 +30 +31 жарко 1006.8 996.0 +29.0
18 17.07 СВ 1 10 км 6/3 600 м
[Cb cap Ac trans]
+21.8 +16.2 70 +26 +26 душно 1007.0 996.0
21 17.07 С 2 10 км 9/6 600 м
[Cb cap Ci ing]
+21.4 +15.6 70 +25 +25 комфорт 1006.9 995.8
00 18.07 С 2 10 км 8/3 600 м
[Cb calv Ac trans]
+19.4 +15.6 79 +22 +22 комфорт 1006.5 995.4
03 18.07 С 3 10 км 10/3 600 м
[Cb cap Ac und]
+20.1 +15.5 75 +23 +23 комфорт 1006.5 995.4 +19.2
06 18.07 СВ 2 10 км 10/3 600 м
[Cb cap Ac und]
+21.9 +16.1 70 +26 +28 душно 1007.1 996.1
09 18.07 СВ 3 10 км {ливн. осадки} 10/4 600 м
[Cb cap Ac und]
+24.3 +16.7 63 +28 +31 душно 1008.2 997.2
12 18.07 СВ 3 10 км {ливн. осадки} 10/8 600 м
[Cb cap Ac und]
+24.5 +18.2 68 +29 +30 душно 1008.6 997.6
15 18.07 СВ 2 10 км 9/4 600 м
[Cb cap Ac trans Ci]
+24.5 +18.0 67 +29 +30 душно 1009.2 998.2 +25.3
18 18.07 СВ 2 10 км 8/3 600 м
[Cb cap Ac trans Ci]
+21.4 +18.5 84 +26 +26 душно 1011.0 999.9

 

Местоположение метеостанции Усть-Лабинск (Краснодарский край, Россия): широта 45.23 долгота 39.73 высота над уровнем моря 94 м.

В архиве по умолчанию представлена погода в Усть-Лабинске за последнюю неделю. Архивные данные за месяц целиком и за предыдущие месяцы, начиная с января 2011 года, Вы можете получить, выбрав интересующий диапазон дат из раскрывающегося списка и нажав кнопку "Ввод!".


*Определитесь, кто Вы:
робот инопланетянин человек

Внимание! Время в таблицах - всемирное. Для получения местного времени необходимо прибавить поправку, которая равна 3 ч.

Смотрите также архив погоды в соседних городах и на ближайших метеорологических станциях:

Погода в Кореновске (Краснодарский край, Россия) (33 км)
Погода в Белореченске (Краснодарский край, Россия) (55 км)
Погода в Краснодаре (Краснодарский край, Россия) (58 км)
Погода в Дондуковской (Адыгея, Россия) (64 км)
Погода в Кропоткине (Краснодарский край, Россия) (69 км)
Погода в Майкопе (Адыгея, Россия) (73 км)
Погода в Тихорецке (Краснодарский край, Россия) (74 км)
Погода в Тимашевске (Краснодарский край, Россия) (77 км)
Погода в Горячем Ключе (Краснодарский край, Россия) (83 км)
Погода в Шунтуке (Адыгея, Россия) (90 км)

Пояснения к столбцам:

Ветер - указаны скорость ветра в м/с - средняя за 10 мин, порывы в срок и между сроками (в фигурных скобках) и направление, откуда дует ветер: С - северный, СВ - северо-восточный, В - восточный, ЮВ - юго-восточный, Ю - южный, ЮЗ - юго-западный, З - западный, СЗ - северо-западный.
Видимость - горизонтальная дальность видимости в метрах или километрах. При видимости от 1 до 10 км при отсутствии осадков обычно наблюдается дымка, при ухудшении видимости до 1 км и менее - туман. В сухую погоду видимость может ухудшаться дымом, пылью или мглою.
Явления - указаны атмосферные явления, наблюдавшиеся в срок или в последний час перед сроком; фигурными скобками обозначены явления, наблюдавшиеся между сроками (за 1-3 часа до срока); квадратными скобками обозначены град или гололедные отложения с указанием их диаметра в мм.
Облачность - указаны через наклонную черту общая и нижняя облачность в баллах и высота нижней границы облаков в метрах; квадратными скобками обозначены формы облаков: Ci - перистые, Cs - перисто-слоистые, Cc - перисто-кучевые, Ac - высококучевые, As - высокослоистые, Sc - слоисто-кучевые, Ns - слоисто-дождевые, Cu - кучевые, Cb - кучево-дождевые. Подробнее классификацию облаков см. в Атласе облаков (PDF).
T - Температура воздуха - температура, измеренная на высоте 2 м над землей.
Td - Температура точки росы - температура, при понижении до которой содержащийся в воздухе водяной пар достигнет насыщения.
f - Относительная влажность воздуха - влажноcть воздуха, измеренная на высоте 2 м над землей.
Te - Эффективная температура - температура, которую ощущает одетый по сезону человек в тени. Характеристика душности погоды. При расчете учитывается влияние влажности воздуха и скорости ветра на теплоощущения человека.
Tes - Эффективная температура на солнце - температура, которую ощущает человек, с поправкой на солнечный нагрев. Характеристика знойности погоды. Зависит от высоты солнца над горизонтом, облачности и скорости ветра. Ночью, в пасмурную погоду, а также при ветре 12 м/с и более поправка равна нулю.
P - Атмосферное давление - приведенное к уровню моря атмосферное давление.
Po - Атмосферное давление - измеренное на уровне метеостанции атмосферное давление.
Tmin - Минимальная температура - минимум температуры воздуха на высоте 2 м над землей.
Tmax - Максимальная температура - максимум температуры воздуха на высоте 2 м над землей.
R - Количество осадков - Количество выпавших осадков за период времени, мм. При наведении курсора мыши на число - период времени, за который выпало указанное количество осадков.
R24 - Количество осадков - Количество выпавших осадков за 24 часа, мм.
S - Снежный покров - Высота снежного покрова, см. При наведении курсора мыши на число - состояние снежного покрова и степень покрытия местности в баллах.